sat.trackr.live / text

‹ back to catalog

STARLINK-35753

NORAD 66232 · 2025-244AC

PAYLOAD ACTIVE UNKNOWN

§ Identity

Operator
Country
US
Launch date
2025-10-28
Launch site
AFWTR
Launch vehicle
Mass (kg)
RCS (m²)

Purposes: comms

External: N2YO · Heavens-Above · Gunter

§ Orbital elements

Epoch: 2026-05-25T03:59:33.630144Z

Period
94.11 min
Inclination
53.1602°
Eccentricity
0.0001248
Mean motion
15.30117610 rev/d
Perigee alt
474.6 km
Apogee alt
476.3 km
Semi-major
6,853.6 km
B*
1.5891e-3
RAAN
235.0190°
Arg perigee
134.2050°
Mean anomaly
225.9053°
Rev number
3,336

§ Raw data

STARLINK-357531 66232U 25244AC  26145.16636146  .00046883  00000+0  15891-2 0  99912 66232  53.1602 235.0190 0001248 134.2050 225.9053 15.30117610 33364

JSON: /api/v1/satellites/66232 · /tle

For live sub-satellite position, see the globe view (requires WebGL).

§ Visibility from observer

Set your observer location to see the next 7 days of passes ≥ 10°. The values pass through the URL so the page stays shareable.

No JS? Fill the form by hand. The geolocation button needs JavaScript.